User: anonymous   Login
Location: Stamford Observatory
(41.1241°N, 73.5498°W)
Time: 08:10:41
(UTC-04:00)
Language:

IRS-P3 - Orbit

View from above orbital plane
View from above orbital plane
View from above satellite
View from above satellite

Ground track
Ground track

The orbit data is extracted from the following two-line orbital elements,

1 23827U 96017A   17234.76704952 +.00000008 +00000-0 +23210-4 0  9992
2 23827 098.7270 171.8803 0002984 185.5180 174.5965 14.22515467111890
Epoch (UTC): 22 August 2017 18:24:33
Eccentricity: 0.0002984
inclination: 98.7270°
perigee height: 815 km
apogee height: 819 km
right ascension of ascending node: 171.8803°
argument of perigee: 185.5180°
revolutions per day: 14.22515467
mean anomaly at epoch: 174.5965°
orbit number at epoch: 11189

The dashed part of the orbit path shows where the satellite is in the earth's shadow,  

DLR